sat.trackr.live / text

‹ back to catalog

ONEWEB-0537

NORAD 56046 · 2023-043A

PAYLOAD ACTIVE UNKNOWN

§ Identity

Operator
Country
UK
Launch date
2023-03-26
Launch site
SRILR
Launch vehicle
Mass (kg)
RCS (m²)

Purposes: comms

External: N2YO · Heavens-Above · Gunter

§ Orbital elements

Epoch: 2026-09-20T04:34:44.751072Z

Period
109.37 min
Inclination
87.9156°
Eccentricity
0.0001888
Mean motion
13.16593423 rev/d
Perigee alt
1,196.3 km
Apogee alt
1,199.2 km
Semi-major
7,575.9 km
B*
-5.5863e-5
RAAN
209.9102°
Arg perigee
81.1198°
Mean anomaly
279.0147°
Rev number
17,146

§ Raw data

ONEWEB-05371 56046U 23043A   26263.19079573 -.00000009  00000+0 -55863-4 0  99942 56046  87.9156 209.9102 0001888  81.1198 279.0147 13.16593423171461

JSON: /api/v1/satellites/56046 · /tle

For live sub-satellite position, see the globe view (requires WebGL).

§ Visibility from observer

Set your observer location to see the next 7 days of passes ≥ 10°. The values pass through the URL so the page stays shareable.

No JS? Fill the form by hand. The geolocation button needs JavaScript.